This is the latest recevied weather packets stored in our database for station/object KB1FFS. If no packets are shown the sender has not sent any weather packets the latest 10 day(s).
| Time | Temp. | Humidity | Pressure | Rain* | Wind** | Luminosity | Snow |
|---|---|---|---|---|---|---|---|
| 1788056714 | 33.33° C | 40% | 1015.3 hPa | 0 mm | - | 0 W/m² | - |
| 1788056409 | 33.33° C | 39% | 1015.1 hPa | 0 mm | - | 0 W/m² | - |
| 1788056104 | 33.33° C | 38% | 1015 hPa | 0 mm | - | 0 W/m² | - |
| 1788055804 | 33.33° C | 39% | 1014.9 hPa | 0 mm | - | 0 W/m² | - |
| 1788055497 | 33.33° C | 38% | 1014.8 hPa | 0 mm | - | 0 W/m² | - |
| 1788055193 | 33.89° C | 40% | 1014.7 hPa | 0 mm | - | 0 W/m² | - |
| 1788054888 | 33.89° C | 38% | 1014.6 hPa | 0 mm | - | 0 W/m² | - |
| 1788054583 | 33.89° C | 37% | 1014.7 hPa | 0 mm | - | 0 W/m² | - |
| 1788054279 | 33.89° C | 36% | 1014.6 hPa | 0 mm | - | 0 W/m² | - |
| 1788053975 | 34.44° C | 37% | 1014.8 hPa | 0 mm | - | 0 W/m² | - |
| 1788053670 | 34.44° C | 37% | 1014.7 hPa | 0 mm | - | 0 W/m² | - |
| 1788053370 | 34.44° C | 36% | 1014.2 hPa | 0 mm | - | 0 W/m² | - |
| 1788053066 | 35° C | 34% | 1014.3 hPa | 0 mm | - | 0 W/m² | - |
| 1788052762 | 35° C | 34% | 1014.1 hPa | 0 mm | - | 0 W/m² | - |
| 1788052458 | 35° C | 35% | 1014.4 hPa | 0 mm | - | 0 W/m² | - |
| 1788052158 | 35° C | 33% | 1014.3 hPa | 0 mm | - | 1 W/m² | - |
| 1788051852 | 35.56° C | 33% | 1014.2 hPa | 0 mm | - | 1 W/m² | - |
| 1788051547 | 35.56° C | 33% | 1014.2 hPa | 0 mm | - | 3 W/m² | - |
| 1788051246 | 35.56° C | 34% | 1014.3 hPa | 0 mm | - | 4 W/m² | - |
| 1788050945 | 36.11° C | 31% | 1014.3 hPa | 0 mm | - | 7 W/m² | - |
| 1788050641 | 36.11° C | 32% | 1014.4 hPa | 0 mm | - | 10 W/m² | - |
| 1788050340 | 36.11° C | 31% | 1014.5 hPa | 0 mm | - | 13 W/m² | - |
| 1788050040 | 36.11° C | 31% | 1014.4 hPa | 0 mm | - | 16 W/m² | - |
| 1788049737 | 36.11° C | 31% | 1014.4 hPa | 0 mm | - | 20 W/m² | - |
| 1788049433 | 36.67° C | 31% | 1014.6 hPa | 0 mm | - | 23 W/m² | - |
* Rain latest hour (hover to see other rain measurements)
** Current wind speed in m/s (hover to see current wind gust speed)